CW1784 Weather Reports


time (UTC)temp
C
wind
direction
speed
KPH
gust
KPH
rain 1hr
cm
rain 24hr
cm
rain mn
cm
humidity
%
barometer
mb
20260508033514 7 0 1.6 6.4 0.00 0.23 0.00 87 1011.5
20260508033032 7 0 0.0 4.8 0.00 0.23 0.00 87 1011.6
20260508032516 8 0 0.0 8.0 0.00 0.23 0.00 87 1011.6
20260508032016 8 0 0.0 8.0 0.00 0.23 0.00 87 1011.4
20260508031530 7 76 1.6 8.0 0.00 0.23 0.00 87 1011.4
20260508031015 7 0 0.0 6.4 0.00 0.23 0.00 88 1011.5
20260508030515 7 83 0.0 6.4 0.00 0.23 0.00 87 1011.4
20260508030034 7 79 1.6 6.4 0.00 0.23 0.00 88 1011.3
20260508025512 7 0 1.6 6.4 0.00 0.23 0.00 88 1011.4
20260508025016 7 0 0.0 6.4 0.00 0.23 0.00 88 1011.4
20260508024536 7 0 1.6 6.4 0.00 0.23 0.00 88 1011.5
20260508024012 7 0 0.0 6.4 0.00 0.23 0.00 88 1011.4
20260508023516 7 0 1.6 6.4 0.00 0.23 0.00 88 1011.4
20260508023035 7 0 0.0 1.6 0.00 0.23 0.00 88 1011.5
20260508022517 7 0 0.0 6.4 0.00 0.23 0.00 88 1011.7
20260508022018 7 67 0.0 6.4 0.00 0.23 0.00 88 1011.6
20260508021531 7 65 0.0 6.4 0.00 0.23 0.00 88 1011.8
20260508021015 7 0 0.0 4.8 0.00 0.23 0.00 88 1011.8
20260508020515 7 88 0.0 4.8 0.00 0.23 0.00 88 1011.9
20260508020031 7 0 0.0 1.6 0.00 0.23 0.00 88 1011.9
20260508015515 7 0 0.0 0.0 0.00 0.23 0.00 87 1011.9
20260508015015 8 0 0.0 0.0 0.00 0.23 0.00 87 1012.1
20260508014533 8 0 0.0 3.2 0.00 0.23 0.00 87 1011.9
20260508014013 8 0 0.0 3.2 0.00 0.23 0.00 87 1011.9
20260508013514 8 123 0.0 3.2 0.00 0.23 0.00 87 1012.0
20260508013030 8 0 0.0 3.2 0.00 0.23 0.00 87 1012.0
20260508012518 8 0 0.0 3.2 0.00 0.23 0.00 87 1012.2
20260508012015 8 0 0.0 3.2 0.00 0.23 0.00 87 1012.3
20260508011547 8 0 0.0 4.8 0.00 0.23 0.00 87 1012.3
20260508011011 8 124 0.0 4.8 0.00 0.23 0.00 87 1012.4
20260508010515 8 0 0.0 6.4 0.00 0.23 0.00 88 1012.5
20260508010033 8 123 1.6 6.4 0.00 0.23 0.00 88 1012.5
20260508005520 8 0 0.0 6.4 0.00 0.23 0.00 88 1012.8
20260508005016 8 0 1.6 6.4 0.00 0.23 0.00 88 1012.8
20260508004540 8 0 0.0 3.2 0.00 0.23 0.00 88 1012.9
20260508004016 8 0 0.0 4.8 0.00 0.23 0.00 88 1012.8
20260508003515 8 0 0.0 8.0 0.00 0.23 0.00 88 1013.0
20260508003037 8 0 1.6 8.0 0.00 0.23 0.00 89 1013.0
20260508002516 8 133 1.6 8.0 0.00 0.23 0.00 89 1013.0
20260508002016 8 146 0.0 4.8 0.00 0.23 0.00 89 1013.0
20260508001536 8 0 0.0 3.2 0.00 0.23 0.00 89 1013.1
20260508001015 8 0 0.0 3.2 0.00 0.23 0.00 89 1013.1
20260508000520 8 0 0.0 3.2 0.00 0.23 0.00 89 1013.2
20260508000029 8 146 0.0 3.2 0.00 0.23 0.00 89 1013.3
20260507235516 8 0 0.0 3.2 0.00 0.23 0.00 89 1013.3
20260507235017 8 0 0.0 1.6 0.00 0.23 0.00 89 1013.4
20260507234532 8 0 0.0 3.2 0.00 0.23 0.00 89 1013.4
20260507234013 8 0 0.0 3.2 0.00 0.23 0.00 89 1013.4
20260507233513 8 0 0.0 1.6 0.00 0.23 0.00 89 1013.5
20260507233032 8 0 0.0 1.6 0.00 0.23 0.00 89 1013.5
20260507232517 8 0 0.0 0.0 0.00 0.23 0.00 89 1013.6
20260507232015 7 0 0.0 0.0 0.00 0.23 0.00 88 1013.5
20260507231530 8 0 0.0 0.0 0.00 0.23 0.00 88 1013.5
20260507231015 8 0 0.0 0.0 0.00 0.23 0.00 88 1013.6
20260507230514 8 0 0.0 1.6 0.00 0.23 0.00 87 1013.6
20260507230029 8 0 0.0 1.6 0.00 0.23 0.00 87 1013.7
20260507225513 8 0 0.0 0.0 0.00 0.23 0.00 87 1013.7
20260507225017 8 0 0.0 3.2 0.00 0.23 0.00 86 1013.7
20260507224530 8 0 0.0 4.8 0.00 0.23 0.00 86 1013.7
20260507224012 8 0 0.0 4.8 0.00 0.23 0.00 86 1013.7
20260507223514 8 146 1.6 4.8 0.00 0.23 0.00 86 1013.7
20260507223030 8 0 1.6 8.0 0.00 0.23 0.00 86 1013.7
20260507222515 8 0 1.6 9.7 0.00 0.23 0.00 86 1013.6
20260507222014 9 151 3.2 9.7 0.00 0.23 0.00 86 1013.8
20260507221531 9 158 3.2 8.0 0.00 0.23 0.00 86 1013.7
20260507221012 9 143 1.6 8.0 0.00 0.23 0.00 86 1013.6
20260507220513 9 144 1.6 8.0 0.00 0.23 0.00 85 1013.7
20260507220033 9 142 3.2 8.0 0.00 0.23 0.00 85 1013.7
20260507215513 9 141 3.2 8.0 0.00 0.23 0.23 86 1013.6
20260507215013 9 142 3.2 11.3 0.00 0.23 0.23 85 1013.6
20260507214530 9 148 3.2 11.3 0.00 0.23 0.23 85 1013.6
20260507214014 9 155 3.2 9.7 0.00 0.23 0.23 86 1013.5
20260507213515 9 153 3.2 9.7 0.00 0.23 0.23 86 1013.5
20260507213033 9 140 3.2 8.0 0.00 0.23 0.23 85 1013.4
20260507212512 9 132 1.6 8.0 0.00 0.23 0.23 85 1013.3
20260507212013 9 133 3.2 6.4 0.00 0.23 0.23 85 1013.4
20260507211532 9 0 3.2 6.4 0.00 0.23 0.23 84 1013.3
20260507211015 9 138 3.2 6.4 0.00 0.23 0.23 84 1013.3
20260507210514 9 140 3.2 8.0 0.00 0.23 0.23 84 1013.3
20260507210032 9 142 1.6 8.0 0.00 0.23 0.23 84 1013.2
20260507205513 9 360 3.2 8.0 0.00 0.23 0.23 83 1013.1
20260507205015 9 145 1.6 4.8 0.00 0.23 0.23 83 1013.0
20260507204530 9 146 0.0 8.0 0.00 0.23 0.23 83 1012.8
20260507204015 9 0 1.6 9.7 0.00 0.23 0.23 82 1012.7
20260507203516 9 148 1.6 9.7 0.00 0.23 0.23 82 1012.6
20260507203029 9 149 3.2 11.3 0.00 0.23 0.23 83 1012.5
20260507202514 10 157 4.8 11.3 0.00 0.23 0.23 83 1012.5
20260507202014 10 144 3.2 8.0 0.00 0.23 0.23 83 1012.4
20260507201532 10 144 1.6 9.7 0.00 0.23 0.23 83 1012.4
20260507201014 9 143 3.2 9.7 0.00 0.23 0.23 83 1012.2
20260507200512 9 115 1.6 4.8 0.00 0.23 0.23 84 1012.1
20260507200036 10 0 0.0 4.8 0.00 0.23 0.23 84 1012.1
20260507195512 10 104 0.0 4.8 0.00 0.23 0.23 84 1012.0
20260507195015 10 0 0.0 4.8 0.00 0.23 0.23 84 1012.0
20260507194532 10 0 0.0 4.8 0.00 0.23 0.23 83 1011.8
20260507194015 10 58 1.6 4.8 0.00 0.23 0.23 83 1011.8
20260507193515 10 0 0.0 3.2 0.00 0.23 0.23 83 1011.8
20260507193033 10 0 0.0 3.2 0.00 0.23 0.23 82 1011.8
20260507192515 10 0 0.0 3.2 0.00 0.23 0.23 81 1011.7
20260507192012 11 0 0.0 3.2 0.00 0.23 0.23 81 1011.6
20260507191532 11 0 0.0 3.2 0.00 0.23 0.23 80 1011.6
20260507191011 11 65 0.0 1.6 0.00 0.23 0.23 80 1011.5
20260507190515 11 0 0.0 4.8 0.00 0.23 0.23 79 1011.5
20260507190038 11 0 0.0 6.4 0.00 0.23 0.23 76 1011.3
20260507185512 11 63 1.6 6.4 0.00 0.23 0.23 76 1011.3
20260507185011 12 20 0.0 4.8 0.00 0.23 0.23 78 1011.2
20260507184537 12 333 1.6 4.8 0.00 0.23 0.23 79 1011.2
20260507184014 12 0 0.0 8.0 0.00 0.23 0.23 81 1011.2
20260507183513 12 0 1.6 8.0 0.00 0.23 0.23 80 1011.1
20260507183037 12 321 3.2 8.0 0.00 0.23 0.23 79 1011.0
20260507182514 12 344 0.0 8.0 0.00 0.23 0.23 78 1010.9
20260507182016 12 360 3.2 9.7 0.00 0.23 0.23 76 1010.8
20260507181529 12 32 3.2 12.9 0.00 0.23 0.23 77 1010.8
20260507181013 12 0 6.4 12.9 0.00 0.23 0.23 77 1010.7
20260507180521 12 35 4.8 12.9 0.00 0.23 0.23 78 1010.7
20260507180033 12 351 4.8 12.9 0.00 0.23 0.23 76 1010.9
20260507175515 12 348 3.2 9.7 0.00 0.23 0.23 76 1010.9
20260507175017 12 319 3.2 9.7 0.00 0.23 0.23 76 1010.9
20260507174537 12 9 1.6 8.0 0.00 0.23 0.23 77 1011.1
20260507174013 12 0 1.6 9.7 0.00 0.23 0.23 79 1011.0
20260507173514 12 0 1.6 12.9 0.00 0.23 0.23 81 1010.9
20260507173034 12 0 4.8 12.9 0.00 0.23 0.23 82 1010.7
20260507172517 11 345 4.8 16.1 0.00 0.23 0.23 83 1010.8
20260507172014 11 331 4.8 16.1 0.00 0.23 0.23 83 1011.0
20260507171532 11 321 4.8 16.1 0.00 0.23 0.23 83 1011.1
20260507171015 11 302 1.6 9.7 0.00 0.23 0.23 83 1011.2
20260507170517 11 325 1.6 8.0 0.00 0.23 0.23 82 1011.0
20260507170031 11 321 3.2 16.1 0.00 0.23 0.23 80 1010.9
20260507165515 11 331 1.6 16.1 0.00 0.23 0.23 75 1011.0
20260507165015 11 123 6.4 16.1 0.00 0.23 0.23 80 1010.8
20260507164531 11 205 4.8 8.0 0.00 0.23 0.23 82 1011.1
20260507164016 11 110 1.6 9.7 0.00 0.23 0.23 81 1011.1
20260507163513 11 0 0.0 9.7 0.00 0.23 0.23 79 1011.1
20260507163033 11 324 3.2 9.7 0.00 0.23 0.23 81 1011.1
20260507162513 11 332 0.0 9.7 0.00 0.23 0.23 81 1011.1
20260507162012 11 0 1.6 9.7 0.00 0.23 0.23 81 1011.1
20260507161530 11 157 0.0 8.0 0.00 0.23 0.23 80 1010.9
20260507161014 11 185 1.6 16.1 0.00 0.23 0.23 81 1010.8
20260507160514 11 184 6.4 17.7 0.00 0.23 0.23 80 1010.8
20260507160034 11 178 9.7 19.3 0.00 0.23 0.23 80 1011.0
20260507155513 11 159 9.7 22.5 0.03 0.23 0.23 81 1011.0
20260507155013 11 178 9.7 22.5 0.05 0.23 0.23 81 1011.0
20260507154532 11 224 8.0 24.1 0.05 0.23 0.23 83 1011.1
20260507154014 11 170 8.0 24.1 0.08 0.23 0.23 86 1010.8
20260507153511 11 162 8.0 19.3 0.05 0.20 0.20 86 1011.1
20260507153033 11 162 8.0 16.1 0.08 0.20 0.20 86 1011.2
20260507152512 11 161 6.4 11.3 0.08 0.20 0.20 87 1011.2
20260507152014 11 155 4.8 12.9 0.10 0.20 0.20 87 1011.1
20260507151531 11 143 6.4 14.5 0.10 0.20 0.20 87 1011.2
20260507151014 11 134 8.0 14.5 0.13 0.20 0.20 88 1011.2
20260507150514 11 148 3.2 16.1 0.13 0.20 0.20 88 1011.2
20260507150033 10 132 8.0 20.9 0.15 0.20 0.20 88 1011.4
20260507145513 10 141 9.7 20.9 0.15 0.18 0.18 88 1011.4
20260507145015 10 115 11.3 20.9 0.13 0.18 0.18 88 1011.4
20260507144534 10 132 11.3 20.9 0.13 0.18 0.18 88 1011.5
20260507144015 10 132 11.3 19.3 0.10 0.15 0.15 88 1011.6
20260507143516 10 126 8.0 16.1 0.10 0.15 0.15 87 1011.8
20260507143032 10 158 6.4 16.1 0.08 0.10 0.10 87 1012.2
20260507142513 10 360 6.4 16.1 0.08 0.10 0.10 87 1012.1
20260507142014 10 136 4.8 16.1 0.05 0.08 0.08 87 1011.9
20260507141530 10 128 6.4 19.3 0.05 0.08 0.08 86 1011.7
20260507141013 10 121 9.7 24.1 0.03 0.08 0.08 85 1011.7
20260507140515 11 135 11.3 24.1 0.03 0.08 0.08 85 1011.9
20260507140036 11 144 11.3 22.5 0.03 0.05 0.05 85 1011.8
20260507135512 11 133 11.3 20.9 0.03 0.03 0.03 84 1011.8
20260507135015 11 130 9.7 19.3 0.03 0.03 0.03 84 1011.8
20260507134528 11 139 9.7 19.3 0.03 0.03 0.03 84 1011.7
20260507134014 11 157 8.0 19.3 0.03 0.03 0.03 84 1011.8
20260507133515 11 144 8.0 22.5 0.03 0.03 0.03 83 1011.7
20260507133030 11 132 11.3 22.5 0.03 0.03 0.03 84 1011.5
20260507132513 11 119 9.7 20.9 0.03 0.03 0.03 84 1011.6
20260507132013 11 140 9.7 22.5 0.03 0.03 0.03 84 1011.5
20260507131535 11 120 9.7 22.5 0.03 0.03 0.03 84 1011.5
20260507131015 11 101 8.0 19.3 0.03 0.03 0.03 83 1011.6
20260507130517 11 128 8.0 19.3 0.03 0.03 0.03 82 1011.6
20260507130034 12 69 9.7 19.3 0.00 0.00 0.00 80 1011.5
20260507125517 12 132 6.4 19.3 0.00 0.00 0.00 76 1011.3
20260507125015 13 128 8.0 24.1 0.00 0.00 0.00 72 1011.4
20260507124536 13 116 11.3 25.7 0.00 0.00 0.00 68 1011.6
20260507124014 14 159 9.7 27.4 0.00 0.00 0.00 66 1011.6
20260507123514 15 178 6.4 27.4 0.00 0.00 0.00 67 1011.4
20260507123033 15 142 1.6 8.0 0.00 0.00 0.00 68 1011.1
20260507122513 15 141 4.8 14.5 0.00 0.00 0.00 66 1010.9
20260507122015 15 0 0.0 14.5 0.00 0.00 0.00 67 1010.9
20260507121538 15 0 1.6 14.5 0.00 0.00 0.00 65 1010.7
20260507121021 16 0 3.2 9.7 0.00 0.00 0.00 65 1010.9
20260507120514 16 0 0.0 9.7 0.00 0.00 0.00 65 1010.9
20260507120030 16 0 0.0 4.8 0.00 0.00 0.00 65 1010.7
20260507115514 16 0 0.0 4.8 0.00 0.00 0.00 63 1010.7
20260507115015 17 0 0.0 12.9 0.00 0.00 0.00 61 1010.7
20260507114608 17 0 4.8 12.9 0.00 0.00 0.00 61 1010.8
20260507114016 17 0 1.6 11.3 0.00 0.00 0.00 63 1010.8
20260507113517 16 286 1.6 11.3 0.00 0.00 0.00 64 1010.9
20260507113035 16 0 1.6 9.7 0.00 0.00 0.00 72 1011.1
20260507112516 15 115 1.6 11.3 0.00 0.00 0.00 67 1011.3
20260507112017 15 93 3.2 11.3 0.00 0.00 0.00 67 1011.4
20260507111533 15 111 0.0 12.9 0.00 0.00 0.00 68 1011.4
20260507111016 15 0 1.6 12.9 0.00 0.00 0.00 69 1011.5
20260507110517 15 121 4.8 12.9 0.00 0.00 0.00 67 1011.6
20260507110032 15 0 1.6 12.9 0.00 0.00 0.00 64 1011.7
20260507105515 16 115 1.6 12.9 0.00 0.00 0.00 70 1011.7
20260507105016 15 0 0.0 11.3 0.00 0.00 0.00 67 1011.9
20260507104532 15 117 0.0 12.9 0.00 0.00 0.00 69 1011.9
20260507104018 15 103 6.4 12.9 0.00 0.00 0.00 68 1012.0
20260507103516 15 138 1.6 9.7 0.00 0.00 0.00 68 1012.0
20260507103030 15 194 1.6 14.5 0.00 0.00 0.00 67 1012.1
20260507102518 15 96 6.4 14.5 0.00 0.00 0.00 66 1011.9
20260507102017 15 90 1.6 12.9 0.00 0.00 0.00 66 1011.9
20260507101543 16 86 1.6 12.9 0.00 0.00 0.00 64 1012.1
20260507101017 16 175 4.8 12.9 0.00 0.00 0.00 66 1012.2
20260507100516 15 0 1.6 12.9 0.00 0.00 0.00 66 1012.3
20260507100035 16 113 3.2 9.7 0.00 0.00 0.00 70 1012.3
20260507095516 15 0 3.2 9.7 0.00 0.00 0.00 67 1012.4
20260507095015 15 0 0.0 11.3 0.00 0.00 0.00 69 1012.4
20260507094533 14 128 1.6 11.3 0.00 0.00 0.00 73 1012.4
20260507094016 13 131 3.2 11.3 0.00 0.00 0.00 76 1012.4
20260507093516 13 196 3.2 8.0 0.00 0.00 0.00 74 1012.4
20260507093037 13 163 1.6 11.3 0.00 0.00 0.00 76 1012.2
20260507092516 13 138 4.8 12.9 0.00 0.00 0.00 76 1012.2
20260507092016 12 134 4.8 19.3 0.00 0.00 0.00 75 1012.3
20260507091530 12 130 3.2 19.3 0.00 0.00 0.00 75 1012.2
20260507091016 12 103 9.7 14.5 0.00 0.00 0.00 76 1012.1
20260507090515 13 113 6.4 14.5 0.00 0.00 0.00 72 1012.1
20260507090032 13 88 4.8 12.9 0.00 0.00 0.00 71 1012.2
20260507085516 13 0 1.6 9.7 0.00 0.00 0.00 70 1012.2
20260507085017 13 0 1.6 9.7 0.00 0.00 0.00 71 1012.3
20260507084529 13 0 1.6 9.7 0.00 0.00 0.00 70 1012.3
20260507084022 13 80 3.2 8.0 0.00 0.00 0.00 73 1012.2
20260507083516 12 0 0.0 8.0 0.00 0.00 0.00 75 1012.2
20260507083038 12 0 1.6 8.0 0.00 0.00 0.00 75 1012.3
20260507082517 12 82 3.2 8.0 0.00 0.00 0.00 72 1012.3
20260507082016 12 0 3.2 9.7 0.00 0.00 0.00 72 1012.3
20260507081532 12 67 3.2 9.7 0.00 0.00 0.00 72 1012.3
20260507081016 12 57 1.6 8.0 0.00 0.00 0.00 73 1012.2
20260507080516 12 0 1.6 8.0 0.00 0.00 0.00 72 1012.2
20260507080037 12 53 3.2 11.3 0.00 0.00 0.00 72 1012.3
20260507075516 12 31 3.2 11.3 0.00 0.00 0.00 71 1012.2
20260507075016 12 57 3.2 11.3 0.00 0.00 0.00 72 1012.1
20260507074532 12 76 4.8 14.5 0.00 0.00 0.00 72 1012.2
20260507074015 12 0 1.6 14.5 0.00 0.00 0.00 72 1012.1
20260507073516 12 47 6.4 14.5 0.00 0.00 0.00 73 1012.1
20260507073032 12 93 4.8 12.9 0.00 0.00 0.00 73 1012.1
20260507072516 12 69 3.2 12.9 0.00 0.00 0.00 73 1012.2
20260507072015 12 52 4.8 14.5 0.00 0.00 0.00 72 1012.2
20260507071540 12 86 6.4 16.1 0.00 0.00 0.00 72 1012.2
20260507071022 12 39 6.4 16.1 0.00 0.00 0.00 72 1012.0
20260507070516 12 55 8.0 17.7 0.00 0.00 0.00 72 1011.9
20260507070034 12 65 6.4 17.7 0.00 0.00 0.00 74 1011.9
20260507065517 11 69 4.8 17.7 0.00 0.00 0.00 74 1011.9
20260507065015 11 52 6.4 17.7 0.00 0.00 0.00 74 1011.9
20260507064532 11 76 8.0 16.1 0.00 0.00 0.00 74 1011.7
20260507064018 11 45 4.8 14.5 0.00 0.00 0.00 74 1011.7
20260507063516 11 69 8.0 16.1 0.00 0.00 0.00 75 1011.7
20260507063032 11 51 8.0 17.7 0.00 0.00 0.00 74 1011.6
20260507062516 11 71 8.0 17.7 0.00 0.00 0.00 75 1011.6
20260507062017 11 90 8.0 19.3 0.00 0.00 0.00 75 1011.6
20260507061530 11 62 6.4 19.3 0.00 0.00 0.00 76 1011.5
20260507061017 10 88 6.4 19.3 0.00 0.00 0.00 76 1011.6
20260507060516 10 66 6.4 17.7 0.00 0.00 0.00 78 1011.4
20260507060030 10 71 4.8 17.7 0.00 0.00 0.00 78 1011.4
20260507055517 10 69 6.4 17.7 0.00 0.00 0.00 78 1011.4
20260507055015 10 94 4.8 16.1 0.00 0.00 0.00 79 1011.3
20260507054530 10 98 4.8 16.1 0.00 0.00 0.00 79 1011.3
20260507054016 10 65 4.8 16.1 0.00 0.00 0.00 79 1011.2
20260507053516 9 80 6.4 16.1 0.00 0.00 0.00 79 1011.1
20260507053032 9 85 6.4 16.1 0.00 0.00 0.00 79 1011.2
20260507052513 9 66 6.4 16.1 0.00 0.00 0.00 79 1011.1
20260507052016 9 76 6.4 16.1 0.00 0.00 0.00 79 1011.1
20260507051532 9 53 6.4 16.1 0.00 0.00 0.00 78 1011.2
20260507051013 10 64 3.2 16.1 0.00 0.00 0.00 78 1011.2
20260507050515 9 69 4.8 17.7 0.00 0.00 0.00 79 1011.2
20260507050030 9 36 6.4 17.7 0.00 0.00 0.00 79 1011.2
20260507045516 9 62 4.8 12.9 0.00 0.00 0.00 79 1011.3
20260507045018 9 73 3.2 16.1 0.00 0.00 0.00 79 1011.3
20260507044530 9 52 6.4 16.1 0.00 0.00 0.00 79 1011.3
20260507044016 9 58 4.8 14.5 0.00 0.00 0.00 79 1011.5
20260507043517 9 66 4.8 12.9 0.00 0.00 0.00 78 1011.3
20260507043036 9 58 4.8 12.9 0.00 0.00 0.00 78 1011.4
20260507042515 9 54 4.8 12.9 0.00 0.00 0.00 78 1011.3
20260507042016 9 68 4.8 12.9 0.00 0.00 0.00 78 1011.3
20260507041533 9 57 4.8 12.9 0.00 0.00 0.00 78 1011.5
20260507041016 9 71 4.8 12.9 0.00 0.00 0.00 78 1011.4
20260507040516 9 56 4.8 9.7 0.00 0.00 0.00 78 1011.4
20260507040032 10 61 1.6 12.9 0.00 0.00 0.00 77 1011.4
20260507035515 10 69 3.2 12.9 0.00 0.00 0.00 77 1011.5
20260507035013 10 56 1.6 9.7 0.00 0.00 0.00 77 1011.4
20260507034530 10 59 3.2 8.0 0.00 0.00 0.00 77 1011.3
20260507034013 10 41 4.8 9.7 0.00 0.00 0.00 77 1011.3